User: anonymous
Location: State Camp
(41.2367°N, 77.7828°W)
Time: 05:28:25
(UTC-04:00)
Language:

ADEOS Rocket - Orbit

View from above orbital plane
View from above orbital plane
View from above satellite
View from above satellite

Ground track
Ground track

The orbit data is extracted from the following two-line orbital elements,

1 24279U 96046C   14257.80611435 -.00000022  00000-0  19193-4 0  7154
2 24279 098.7387 314.2402 0299528 336.6250 132.0002 13.46989992888758
Epoch (UTC): 14 September 2014 19:20:48
Eccentricity: 0.0299528
inclination: 98.7387°
perigee height: 860 km
apogee height: 1307 km
right ascension of ascending node: 314.2402°
argument of perigee: 336.6250°
revolutions per day: 13.46989992
mean anomaly at epoch: 132.0002°
orbit number at epoch: 88875

The dashed part of the orbit path shows where the satellite is in the earth's shadow,  

DLR